This demonstration page uses our WeatherBlox Daily Observations layout. Learn more.

Hourly Observations for February 19, 2020

Temp ( °F °C ) Dew Point ( °F °C ) Humidity (%) Winds ( mph kmh ) Pressure ( in mb ) Visibility ( mi km ) Precip ( " mm )
12:54 am 00:54 Clear 24 -4.4 20 -6.7 84 84 N 7 11 30.51 1033 10 16.0934 0 0
1:54 am 01:54 Clear 23 -5 20 -6.7 88 88 N 6 9 30.53 1034 8 12.87472 0 0
2:54 am 02:54 Clear 21 -6.1 18 -7.8 88 88 N 7 11 30.53 1034 8 12.87472 0 0
3:38 am 03:38 Mostly Clear with Mist and Fog 23 -5 20 -6.7 88 88 N 7 11 30.59 1036 6 9.65604 0 0
3:54 am 03:54 Mostly Cloudy with Mist and Fog 23 -5 21 -6.1 92 92 N 7 11 30.54 1034 5 8.0467 0 0
4:54 am 04:54 Cloudy with Mist and Fog 26 -3.3 23 -5 88 88 NNE 7 11 30.55 1034 5 8.0467 0 0
5:54 am 05:54 Cloudy with Mist and Fog 27 -2.8 23 -5 85 85 NE 14 22 30.56 1035 6 9.65604 0 0
6:54 am 06:54 Cloudy with Mist and Fog 26 -3.3 22 -5.6 84 84 ENE 15 24 30.57 1035 6 9.65604 0 0
7:54 am 07:54 Cloudy with Mist and Fog 25 -3.9 22 -5.6 88 88 NE 9 15 30.6 1036 5 8.0467 0 0
8:54 am 08:54 Cloudy with Mist and Fog 24 -4.4 20 -6.7 84 84 NNE 14 22 30.64 1038 6 9.65604 0 0
9:54 am 09:54 Cloudy 23 -5 18 -7.8 81 81 NE 16 26 30.64 1038 8 12.87472 0 0
10:54 am 10:54 Cloudy 23 -5 18 -7.8 81 81 NNE 14 22 30.66 1038 10 16.0934 0 0
11:03 am 11:03 Cloudy 22 -5.6 17 -8.3 82 82 NE 15 24 30.7 1040 10 16.0934 0 0
11:54 am 11:54 Cloudy 23 -5 17 -8.3 78 78 NE 14 22 30.67 1039 10 16.0934 0 0
12:54 pm 12:54 Cloudy 23 -5 17 -8.3 78 78 NE 16 26 30.66 1038 9 14.48406 0 0
1:13 pm 13:13 Cloudy 23 -5 17 -8.3 78 78 NE 16 26 30.68 1039 10 16.0934 0 0
1:45 pm 13:45 Cloudy 23 -5 16 -8.9 74 74 NE 16 26 30.69 1039 10 16.0934 0 0
1:54 pm 13:54 Cloudy 23 -5 16 -8.9 74 74 NNE 16 26 30.65 1038 10 16.0934 0 0
2:54 pm 14:54 Cloudy 22 -5.6 16 -8.9 78 78 NNE 15 24 30.65 1038 10 16.0934 0 0
3:52 pm 15:52 Cloudy with Light Snow 21 -6 16 -9 80 80 NE 15 24 30.69 1039 1.75 2.816345 0.001 0.001
3:54 pm 15:54 Cloudy with Light Snow 22 -5.6 16 -8.9 78 78 NNE 15 24 30.66 1038 1.5 2.41401 0.001 0.001
4:27 pm 16:27 Cloudy with Light Snow 22 -5.6 16 -8.9 78 78 NNE 16 26 30.69 1039 1 1.60934 0.01 0.254
4:54 pm 16:54 Cloudy with Light Snow 20 -6.7 15 -9.4 81 81 NNE 17 28 30.66 1038 1.25 2.011675 0.01 0.254
5:54 pm 17:54 Cloudy with Light Snow 19 -7.2 14 -10 81 81 NNE 15 24 30.67 1039 3 4.82802 0.01 0.254
6:02 pm 18:02 Cloudy with Light Snow 19 -7.2 13 -10.6 77 77 NNE 18 30 30.72 1040 4 6.43736 0.001 0.001
6:54 pm 18:54 Cloudy with Light Snow 17 -8.3 12 -11.1 80 80 NNE 13 20 30.71 1040 5 8.0467 0.001 0.001
7:09 pm 19:09 Cloudy with Light Snow 17 -8.3 11 -11.7 77 77 NNE 16 26 30.75 1041 3 4.82802 0.001 0.001
7:16 pm 19:16 Cloudy with Light Snow 17 -8.3 12 -11.1 80 80 NNE 12 19 30.75 1041 2 3.21868 0.001 0.001
7:23 pm 19:23 Cloudy with Light Snow 17 -8.3 12 -11.1 80 80 N 16 26 30.75 1041 1.75 2.816345 0.001 0.001
7:35 pm 19:35 Cloudy with Light Snow 16 -8.9 11 -11.7 80 80 NNE 14 22 30.76 1042 3 4.82802 0.001 0.001
7:42 pm 19:42 Cloudy with Light Snow 16 -8.9 12 -11.1 84 84 N 15 24 30.77 1042 3 4.82802 0.001 0.001
7:54 pm 19:54 Cloudy with Light Snow 16 -8.9 10 -12.2 77 77 N 18 30 30.72 1040 4 6.43736 0.001 0.001
8:54 pm 20:54 Cloudy 15 -9.4 10 -12.2 80 80 NNE 15 24 30.74 1041 10 16.0934 0.001 0.001
9:52 pm 21:52 Cloudy 16 -9 10 -12 79 79 NNE 13 20 30.81 1043 9 14.48406 0.001 0.001
9:54 pm 21:54 Mostly Cloudy 15 -9.4 10 -12.2 80 80 NNE 12 19 30.76 1042 9 14.48406 0.001 0.001
10:54 pm 22:54 Cloudy 15 -9.4 8 -13.3 74 74 NNE 12 19 30.78 1042 10 16.0934 0 0
11:54 pm 23:54 Clear 13 -10.6 6 -14.4 74 74 N 12 19 30.79 1043 10 16.0934 0 0

Powered by AerisWeather